Find Starlink 31741

NORAD ID: 59550 Int'l Des: 2024-074 Owner: SPXS Country: US Constellation: starlink operational
LEOCIRCULAR

Live-Position

3D-Globus wird geladen...

Über Starlink 31741

Beschreibung wird geladen...

Nächste Überflüge

Passes for default location (London). Set your location on the main map for personalized predictions.

Höhenverlauf

Loading altitude history...

Zweizeiliger Elementsatz

1 59550U 24074S 26123.78238765 -.00004423 00000-0 -15135-3 0 9994
2 59550 43.0020 32.0789 0001340 276.5637 83.5062 15.27568145114440
Epoch: 3. Mai 2026 • Age: 9 hours

Aktueller Status

Höhe 486.5 km
Geschwindigkeit 7.62 km/s
Subsatellitenpunkt -17.47°S, 45.22°W
Startdatum 18. Apr. 2024
Alter 2 years
Typ internet

Technische Details

Klassifizierung Payload
Masse 730.00 kg
Trockenmasse 700.00 kg
Gesamtmasse 730.00 kg
Länge 0.30 m
Durchmesser 4.10 m
Spannweite 29.00 m
Form Box + pan
Hersteller SPXS
Bus-Typ Starlink V2M
Phasenstatus In Orbit
Besitzer/Staat SPXS/US

Most Searched